This demonstration page uses our WeatherBlox Daily Observations layout. Learn more.

Hourly Observations for October 21, 2017

Temp ( °F °C ) Dew Point ( °F °C ) Humidity (%) Winds ( mph kmh ) Pressure ( in mb ) Visibility ( mi km ) Precip ( " mm )
12:54 am 00:54 Mostly Cloudy 69 20.6 59 15 70 70 S 24 39 29.61 1003 10 16.0934 0 0
1:52 am 01:52 Cloudy 70 21 61 16 73 73 S 31 50 29.56 1001 10 16.0934 0 0
2:24 am 02:24 Cloudy 70 21.1 60 15.6 71 71 S 30 48 29.56 1001 10 16.0934 0 0
2:54 am 02:54 Mostly Cloudy 69 20.6 60 15.6 73 73 S 25 41 29.57 1001 10 16.0934 0 0
3:35 am 03:35 Partly Cloudy 69 20.6 61 16.1 76 76 S 30 48 29.53 1000 10 16.0934 0 0
3:54 am 03:54 Clear 69 20.6 61 16.1 76 76 S 29 46 29.55 1001 10 16.0934 0 0
4:54 am 04:54 Cloudy 69 20.6 61 16.1 76 76 S 29 46 29.54 1001 10 16.0934 0 0
5:26 am 05:26 Cloudy 69 20.6 61 16.1 76 76 S 23 37 29.53 1000 10 16.0934 0 0
5:54 am 05:54 Cloudy 69 20.6 61 16.1 76 76 S 23 37 29.56 1001 10 16.0934 0 0
6:10 am 06:10 Cloudy 69 20.6 61 16.1 76 76 S 24 39 29.53 1000 10 16.0934 0 0
6:54 am 06:54 Cloudy 69 20.6 62 16.7 78 78 S 23 37 29.56 1001 10 16.0934 0 0
7:16 am 07:16 Cloudy 69 20.6 62 16.7 78 78 S 24 39 29.53 1000 10 16.0934 0 0
7:38 am 07:38 Cloudy 69 20.6 62 16.7 78 78 S 21 33 29.53 1000 10 16.0934 0 0
7:54 am 07:54 Cloudy 69 20.6 62 16.7 78 78 S 18 30 29.57 1001 10 16.0934 0 0
8:20 am 08:20 Cloudy 69 20.6 62 16.7 78 78 S 17 28 29.56 1001 10 16.0934 0 0
8:52 am 08:52 Cloudy 70 21 63 17 78 78 S 22 35 29.56 1001 10 16.0934 0 0
8:54 am 08:54 Cloudy 69 20.6 62 16.7 78 78 S 21 33 29.6 1002 10 16.0934 0 0
9:01 am 09:01 Cloudy 69 20.6 62 16.7 78 78 S 22 35 29.56 1001 10 16.0934 0 0
9:12 am 09:12 Cloudy 69 20.6 62 16.7 78 78 S 24 39 29.56 1001 10 16.0934 0 0
9:47 am 09:47 Cloudy 70 21.1 62 16.7 76 76 S 20 31 29.56 1001 10 16.0934 0 0
9:54 am 09:54 Cloudy 70 21.1 62 16.7 76 76 S 21 33 29.6 1002 10 16.0934 0 0
10:54 am 10:54 Cloudy 72 22.2 62 16.7 71 71 S 25 41 29.6 1002 10 16.0934 0 0
11:21 am 11:21 Cloudy 71 21.7 62 16.7 73 73 S 23 37 29.59 1002 10 16.0934 0 0
11:54 am 11:54 Cloudy 72 22.2 63 17.2 73 73 S 20 31 29.62 1003 10 16.0934 0 0
12:54 pm 12:54 Cloudy 74 23.3 60 15.6 62 62 SW 22 35 29.63 1004 10 16.0934 0 0
1:54 pm 13:54 Cloudy 75 23.9 52 11.1 45 45 SW 21 33 29.65 1004 10 16.0934 0 0
2:19 pm 14:19 Partly Cloudy 70 21.1 50 10 49 49 NW 28 44 29.65 1004 10 16.0934 0 0
2:32 pm 14:32 Mostly Sunny 68 20 46 7.8 45 45 NW 28 44 29.68 1005 10 16.0934 0 0
2:54 pm 14:54 Sunny 66 18.9 45 7.2 47 47 NNW 24 39 29.72 1006 10 16.0934 0 0
3:54 pm 15:54 Mostly Cloudy 64 17.8 43 6.1 46 46 NW 23 37 29.78 1008 10 16.0934 0 0
4:54 pm 16:54 Cloudy 61 16.1 40 4.4 46 46 NNW 17 28 29.83 1010 10 16.0934 0 0
5:54 pm 17:54 Mostly Sunny 60 15.6 41 5 50 50 NW 22 35 29.87 1012 10 16.0934 0 0
6:54 pm 18:54 Clear 57 13.9 40 4.4 53 53 NW 10 17 29.89 1012 10 16.0934 0 0
7:54 pm 19:54 Clear 55 12.8 39 3.9 55 55 NW 12 19 29.93 1014 10 16.0934 0 0
8:54 pm 20:54 Clear 53 11.7 39 3.9 59 59 WNW 6 9 29.96 1015 10 16.0934 0 0
9:54 pm 21:54 Clear 52 11.1 39 3.9 61 61 NW 5 7 29.98 1015 10 16.0934 0 0
10:54 pm 22:54 Clear 51 10.6 39 3.9 64 64 Calm 29.99 1016 10 16.0934 0 0
11:54 pm 23:54 Clear 50 10 39 3.9 66 66 W 5 7 30 1016 10 16.0934 0 0

Powered by AerisWeather